This is the latest recevied weather packets stored in our database for station/object KQ4PPF. If no packets are shown the sender has not sent any weather packets the latest 10 day(s).
| Time | Temp. | Humidity | Pressure | Rain* | Wind** | Luminosity | Snow |
|---|---|---|---|---|---|---|---|
| 1777977572 | 11.67° C | 85% | 1013.2 hPa | 0 mm | - | 0 W/m² | - |
| 1777977270 | 11.67° C | 84% | 1013 hPa | 0 mm | - | 0 W/m² | - |
| 1777976967 | 11.67° C | 85% | 1013.3 hPa | 0 mm | - | 0 W/m² | - |
| 1777976665 | 11.11° C | 86% | 1013.2 hPa | 0 mm | - | 0 W/m² | - |
| 1777976361 | 11.11° C | 86% | 1013.2 hPa | 0 mm | - | 0 W/m² | - |
| 1777976060 | 11.11° C | 88% | 1012.9 hPa | 0 mm | - | 0 W/m² | - |
| 1777975756 | 11.11° C | 89% | 1012.8 hPa | 0 mm | - | 0 W/m² | - |
| 1777975453 | 11.11° C | 89% | 1012.8 hPa | 0 mm | - | 0 W/m² | - |
| 1777975149 | 10.56° C | 89% | 1012.8 hPa | 0 mm | - | 0 W/m² | - |
| 1777974846 | 11.11° C | 89% | 1013.1 hPa | 0 mm | - | 0 W/m² | - |
| 1777974542 | 11.11° C | 88% | 1013 hPa | 0 mm | - | 0 W/m² | - |
| 1777974240 | 11.11° C | 88% | 1012.7 hPa | 0 mm | - | 0 W/m² | - |
| 1777973935 | 11.11° C | 88% | 1012.6 hPa | 0 mm | - | 0 W/m² | - |
| 1777973632 | 11.11° C | 88% | 1013.1 hPa | 0 mm | - | 0 W/m² | - |
| 1777973330 | 11.11° C | 88% | 1012.8 hPa | 0 mm | - | 0 W/m² | - |
| 1777973028 | 11.11° C | 87% | 1013.1 hPa | 0 mm | - | 0 W/m² | - |
| 1777972725 | 11.11° C | 87% | 1013 hPa | 0 mm | - | 0 W/m² | - |
| 1777972423 | 11.67° C | 87% | 1012.7 hPa | 0 mm | - | 0 W/m² | - |
| 1777972120 | 11.67° C | 86% | 1012.8 hPa | 0 mm | - | 0 W/m² | - |
| 1777971818 | 11.67° C | 85% | 1012.7 hPa | 0 mm | - | 0 W/m² | - |
| 1777971515 | 11.67° C | 85% | 1012.9 hPa | 0 mm | - | 0 W/m² | - |
| 1777971213 | 11.67° C | 84% | 1012.9 hPa | 0 mm | - | 0 W/m² | - |
| 1777970911 | 12.22° C | 83% | 1012.7 hPa | 0 mm | - | 0 W/m² | - |
| 1777970609 | 12.22° C | 83% | 1012.9 hPa | 0 mm | - | 0 W/m² | - |
| 1777970306 | 12.22° C | 82% | 1012.7 hPa | 0 mm | - | 0 W/m² | - |
* Rain latest hour (hover to see other rain measurements)
** Current wind speed in m/s (hover to see current wind gust speed)